Location: PSU-Greenbush Astrophysical Observatory
(37.5140°N, 94.9880°W)
Time: 04:41:09
(UTC-05:00)

CUTE 1.7 + AOD 2 - Pass Details

Date: 23 February 2020
Orbit: 593 x 612 km, 97.6° (Epoch: 07 April)

Event Time Altitude Azimuth Distance (km) Brightness Sun altitude
Rises 05:10:30 0° 19° (NNE) 2,843 ? -22.4°
Reaches altitude 10° 05:12:46 10° 26° (NNE) 1,935 ? -22.0°
Maximum altitude 05:16:46 43° 98° (E) 837 ? -21.2°
Drops below altitude 10° 05:20:44 10° 171° (S) 1,917 ? -20.4°
Sets 05:22:58 0° 178° (S) 2,814 ? -20.0°
